Location: La Brionne
(46.1728°N, 1.7849°E)
Time: 07:48:58
(UTC+00:00)

Cosmos 2219 Rocket - Pass Details

Date: 16 June 2021
Orbit: 829 x 845 km, 71.0° (Epoch: 01 August)

Event Time Altitude Azimuth Distance (km) Brightness Sun altitude
Exits shadow 21:24:18 17° 151° (SSE) 1,991 3.5 -12.6°
Maximum altitude 21:27:31 29° 104° (ESE) 1,498 3.1 -13.0°
Drops below altitude 10° 21:32:20 10° 46° (NE) 2,474 4.8 -13.4°
Sets 21:35:03 0° 35° (NE) 3,412 5.7 -13.7°
